map of ADA home
ADA - Airport
Location
City:  Adana, Adana, Turkey
ICAO:LTAF
IATA:ADA

Details
Type:Airport (Aerodrome, Airfield)
Use:Public/Civil
Latitude:3658'56"N (36.982166)
Longitude:3516'49"E (35.280388)
Datum:WGS 1984
Elevation:65 ft (20 m)
Variation:5.26E (WMM2015 magnetic declination)
0.09 annual change
Runways:1
Longest:9022 × 148 ft (2750 × 45 m), paved

Time
Time Zone:UTC+3
Local Time:

Weather
METAR:LTAF 091250Z 23006KT 200V260 CAVOK 15/01 Q1024 NOSIG RMK RWY23 23007KT
TAF:LTAF 091040Z 0912/1012 VRB02KT CAVOK
BECMG 0914/0916 4000 BR
BECMG 0920/0922 CAVOK PROB40 1003/1007 4000 BR=

Related Locations
Nearby:
Farthest:RVV: 11511 mi / 18526 km
Raivavae, Tubuai Islands, Austral Islands, PF

Find:

   beyond  
but within

Other Information
Maps:
NOTAMs:
Links:
Sources:

  
flag of Turkey   

Sectional Chart

Flight Planning
at skyvector.com

Satellite Image

Google Maps Satellite view

 

Copyright © 2004-2016 Karl L. Swartz. All rights reserved.
The Great Circle Mapper name and logo are trademarks of the Great Circle Mapper.
All other trademarks mentioned herein belong to their respective owners.
Please see credits for attibutions and further copyright information.

  Follow gcmap on Facebook Follow gcmap on Twitter Follow gcmap on Google+ GCmap on LinkedIn

hCard Microformat

Geo Microformat